Flag for Canada Weather past 2 weeks in Resolute Bay, Nunavut, Canada

Now
10 °F

Light snow. Partly sunny.


Feels Like: -9 °F
Forecast: 6 / 17 °F
Wind: 22 mph from Northwest

Location: Resolute

Current Time: May 22, 2015 at 1:43:19 PM

Latest Report: May 22, 2015 at 1:00 PM


Visibility: 15 mi

Pressure: 29.94 "Hg

Humidity: 79%

Dew point: 5 °F

Location of Resolute BayLocation

Historic Weather in Resolute Bay — Graph

°F

Resolute Bay temperature yesterday

Maximum temperature yesterday: 30 °F (at 12:00 AM)
Minimum temperature yesterday: 9 °F (at 11:00 PM)
Average temperature yesterday: 19 °F

Past Weeks' High & Low Weather Summary

 TemperatureHumidityPressure
High30 °F (May 20, 7:00 PM)100% (May 20, 6:00 PM)30.41 "Hg (May 20, 6:00 PM)
Low0 °F (May 8, 5:00 AM)71% (May 16, 2:00 AM)29.71 "Hg (May 21, 12:00 AM)
Average10 °F83%30.07 "Hg
* Reported May 7 12:00 Noon — May 22 12:00 Noon, Resolute Bay, Weather by CustomWeather, © 2015

Note: Actual official high and low records may vary slightly from our data, if they occured in-between our weather recording intervals... More about our weather records

Advertising

Resolute Bay weather history for previous 24 hours

 ConditionsComfort  
Time TempWeatherWind HumidityBarometerVisibility
12:00 PM
Fri, May 22
10 °FSnow flurries. Broken clouds.18 mph79%29.95 "Hg15 mi
11:00 AM9 °FSnow flurries. Passing clouds.24 mph78%29.96 "Hg15 mi
10:00 AM9 °FSnow flurries. Passing clouds.25 mph78%29.98 "Hg15 mi
9:00 AM7 °FSnow flurries. Passing clouds.25 mph85%29.99 "Hg12 mi
8:00 AM7 °FSnow flurries. Passing clouds.18 mph78%30.00 "Hg12 mi
7:00 AM5 °FPassing clouds.20 mph85%30.00 "Hg15 mi
6:00 AM5 °FPassing clouds.20 mph85%30.00 "Hg15 mi
5:00 AM5 °FLow level haze.22 mph85%29.99 "Hg10 mi
4:00 AM5 °FLow level haze.31 mph85%29.98 "Hg8 mi
3:00 AM7 °FLow level haze.35 mph85%29.96 "Hg12 mi
2:00 AM9 °FLow level haze.32 mph78%29.99 "Hg12 mi
1:00 AM9 °FLow level haze.31 mph85%29.98 "Hg2 mi
12:00 AM9 °FLow level haze.25 mph85%29.98 "Hg15 mi
11:00 PM
Thu, May 21
9 °FLow level haze.28 mph85%29.98 "Hg15 mi
10:00 PM10 °FLow level haze.22 mph85%29.99 "Hg15 mi
9:00 PM10 °FLow level haze.29 mph85%30.00 "Hg15 mi
8:00 PM12 °FLow level haze.29 mph79%30.01 "Hg15 mi
7:00 PM12 °FLow level haze.30 mph85%29.99 "Hg15 mi
6:00 PM14 °FLight snow. Scattered clouds.30 mph85%29.97 "Hg6 mi
5:00 PM14 °FLight snow. Low level haze.29 mph85%29.95 "Hg6 mi
4:00 PM16 °FLight snow. Low level haze.25 mph86%29.93 "Hg4 mi
3:00 PM16 °FLight snow. Low level haze.30 mph79%29.94 "Hg15 mi
2:56 PM16 °FLight snow. Passing clouds.26 mph79%29.94 "Hg15 mi
2:00 PM16 °FLow level haze.22 mph79%29.93 "Hg15 mi
1:00 PM14 °FLow level haze.30 mph85%29.90 "Hg15 mi
Weather by CustomWeather, © 2015

See weather overviewHow to use our weather pages